Weather History for Lakeville, MN

Change the Weather History Date:

Saturday, October 20, 2012

  Actual Average Record
Temperature  
Mean Temperature 42 °F -  
Max Temperature 51 °F 57 °F 88 °F (1953)
Min Temperature 32 °F 35 °F 16 °F (1952)
Degree Days  
Heating Degree Days 24    
Moisture  
Dew Point 40 °F    
Average Humidity 92    
Maximum Humidity 100    
Minimum Humidity 71    
Precipitation  
Precipitation 0.00 in - - ()
Sea Level Pressure  
Sea Level Pressure 29.79 in    
Wind  
Wind Speed 2 mph (SSW)    
Max Wind Speed 8 mph    
Max Gust Speed -    
Visibility 6 miles    
Events Fog    
Averages and records for this station are not official NWS values.
T = Trace of Precipitation, MM = Missing Value Source: NWS Daily Summary

Daily Weather History Graph

Daily Weather History Graph

Search for Another Location

Airport:

Trip Planner

Search our weather history database for the weather conditions in past years. The results will help you decide how hot, cold, wet, or windy it might be!

Date:

Astronomy

Oct. 20, 2012 Rise Set
Actual Time 7:35 AM CDT 6:19 PM CDT
Civil Twilight 7:05 AM CDT 6:48 PM CDT
Nautical Twilight 6:31 AM CDT 7:22 PM CDT
Astronomical Twilight 5:57 AM CDT 7:56 PM CDT
Moon 1:18 PM CDT (10/20) 10:59 PM CDT (10/20)
Length of Visible Light 11h 43m
Length of Day
10h 43m
Waxing Crescent, 34% of the Moon is Illuminated
Oct 20
Waxing Crescent
Oct 21
First Quarter
Oct 29
Full
Nov 6
Last Quarter
Nov 13
New

Hourly Weather History & Observations

Time (CDT) Temp. Windchill Dew Point Humidity Pressure Visibility Wind Dir Wind Speed Gust Speed Precip Events Conditions
12:13 AM 32.0 °F - 32.0 °F 100% 29.73 in 5.0 mi Calm Calm - N/A   Clear
12:32 AM 32.0 °F - 32.0 °F 100% 29.73 in 5.0 mi Calm Calm - N/A   Clear
12:52 AM 32.0 °F - 32.0 °F 100% 29.73 in 3.0 mi Calm Calm - N/A   Clear
1:13 AM 32.0 °F - 32.0 °F 100% 29.74 in 3.0 mi Calm Calm - N/A   Clear
1:32 AM 33.8 °F 29.6 °F 33.8 °F 100% 29.74 in 7.0 mi West 4.6 mph - N/A   Clear
1:52 AM 33.8 °F 30.8 °F 33.8 °F 100% 29.75 in 0.2 mi West 3.5 mph - N/A Fog Fog
2:13 AM 35.6 °F - 35.6 °F 100% 29.74 in 0.5 mi Calm Calm - N/A Fog Fog
2:32 AM 33.8 °F - 33.8 °F 100% 29.74 in 0.5 mi Calm Calm - N/A Fog Fog
2:52 AM 33.8 °F - 33.8 °F 100% 29.74 in 0.8 mi Calm Calm - N/A   Mist
3:12 AM 33.8 °F - 33.8 °F 100% 29.74 in 1.0 mi Calm Calm - N/A   Mist
3:32 AM 33.8 °F - 33.8 °F 100% 29.74 in 0.5 mi Calm Calm - N/A Fog Fog
3:53 AM 33.8 °F - 33.8 °F 100% 29.75 in 1.0 mi Calm Calm - N/A   Overcast
4:12 AM 32.0 °F - 32.0 °F 100% 29.75 in 0.8 mi Calm Calm - N/A   Mist
4:32 AM 32.0 °F 28.7 °F 32.0 °F 100% 29.76 in 0.2 mi West 3.5 mph - N/A Fog Fog
4:53 AM 32.0 °F 28.7 °F 32.0 °F 100% 29.76 in 0.2 mi West 3.5 mph - N/A Fog Fog
5:12 AM 33.8 °F - 33.8 °F 100% 29.76 in 0.2 mi Calm Calm - N/A Fog Fog
5:32 AM 37.4 °F - 37.4 °F 100% 29.77 in 0.2 mi Calm Calm - N/A Fog Fog
5:53 AM 37.4 °F 33.8 °F 37.4 °F 100% 29.77 in 0.2 mi West 4.6 mph - N/A Fog Fog
6:12 AM 37.4 °F - 37.4 °F 100% 29.77 in 0.2 mi Calm Calm - N/A Fog Fog
6:32 AM 37.4 °F 34.9 °F 37.4 °F 100% 29.78 in 0.2 mi WSW 3.5 mph - N/A Fog Fog
6:53 AM 39.2 °F 37.0 °F 39.2 °F 100% 29.78 in 0.5 mi WSW 3.5 mph - N/A Fog Fog
7:12 AM 39.2 °F - 39.2 °F 100% 29.77 in 0.2 mi Calm Calm - N/A Fog Fog
7:32 AM 39.2 °F 35.9 °F 39.2 °F 100% 29.78 in 0.2 mi WSW 4.6 mph - N/A Fog Fog
7:53 AM 39.2 °F - 39.2 °F 100% 29.79 in 0.2 mi Calm Calm - N/A Fog Fog
8:12 AM 39.2 °F 37.0 °F 39.2 °F 100% 29.80 in 0.2 mi WSW 3.5 mph - N/A Fog Fog
8:32 AM 39.2 °F - 39.2 °F 100% 29.81 in 0.5 mi Calm Calm - N/A Fog Fog
8:53 AM 41.0 °F - 41.0 °F 100% 29.81 in 0.5 mi Calm Calm - N/A Fog Fog
9:12 AM 41.0 °F 39.0 °F 41.0 °F 100% 29.80 in 1.5 mi South 3.5 mph - N/A   Mist
9:32 AM 41.0 °F - 41.0 °F 100% 29.80 in 1.8 mi Calm Calm - N/A   Mist
9:53 AM 41.0 °F 39.0 °F 41.0 °F 100% 29.81 in 1.8 mi West 3.5 mph - N/A   Mist
10:12 AM 42.8 °F 41.1 °F 42.8 °F 100% 29.82 in 4.0 mi South 3.5 mph - N/A   Mist
10:32 AM 42.8 °F 41.1 °F 42.8 °F 100% 29.82 in 5.0 mi SSW 3.5 mph - N/A   Mist
10:53 AM 42.8 °F 40.1 °F 42.8 °F 100% 29.83 in 7.0 mi SW 4.6 mph - N/A   Overcast
11:12 AM 42.8 °F 40.1 °F 42.8 °F 100% 29.83 in 7.0 mi SSW 4.6 mph - N/A   Unknown
11:32 AM 42.8 °F - 42.8 °F 100% 29.82 in 7.0 mi Calm Calm - N/A   Unknown
11:53 AM 44.6 °F 42.2 °F 44.6 °F 100% 29.82 in 10.0 mi SW 4.6 mph - N/A   Overcast
12:12 PM 46.4 °F 44.3 °F 44.6 °F 93% 29.81 in 10.0 mi SW 4.6 mph - N/A   Unknown
12:32 PM 46.4 °F 45.2 °F 42.8 °F 87% 29.81 in 10.0 mi SSW 3.5 mph - N/A   Mostly Cloudy
12:53 PM 48.2 °F - 42.8 °F 82% 29.80 in 10.0 mi South 8.1 mph - N/A   Mostly Cloudy
1:12 PM 48.2 °F - 42.8 °F 82% 29.80 in 10.0 mi South 5.8 mph - N/A   Scattered Clouds
1:33 PM 50.0 °F - 42.8 °F 76% 29.80 in 10.0 mi SSW 8.1 mph - N/A   Scattered Clouds
1:52 PM 50.0 °F - 42.8 °F 76% 29.79 in 10.0 mi South 3.5 mph - N/A   Scattered Clouds
2:12 PM 50.0 °F - 42.8 °F 76% 29.78 in 10.0 mi South 3.5 mph - N/A   Scattered Clouds
2:33 PM 51.8 °F - 42.8 °F 71% 29.77 in 10.0 mi SSE 6.9 mph - N/A   Scattered Clouds
2:52 PM 51.8 °F - 42.8 °F 71% 29.77 in 10.0 mi SSE 8.1 mph - N/A   Clear
3:12 PM 51.8 °F - 42.8 °F 71% 29.78 in 10.0 mi SE 8.1 mph - N/A   Clear
3:33 PM 51.8 °F - 42.8 °F 71% 29.78 in 10.0 mi SSW 6.9 mph - N/A   Scattered Clouds
3:52 PM 51.8 °F - 42.8 °F 71% 29.78 in 10.0 mi SW 5.8 mph - N/A   Scattered Clouds
4:12 PM 50.0 °F - 42.8 °F 76% 29.78 in 10.0 mi SSW 6.9 mph - N/A   Mostly Cloudy
4:33 PM 50.0 °F - 42.8 °F 76% 29.79 in 10.0 mi SW 5.8 mph - N/A   Mostly Cloudy
4:52 PM 48.2 °F - 42.8 °F 82% 29.78 in 10.0 mi SSW 6.9 mph - N/A   Scattered Clouds
5:12 PM 46.4 °F - 42.8 °F 87% 29.79 in 10.0 mi Calm Calm - N/A   Clear
5:33 PM 46.4 °F 44.3 °F 42.8 °F 87% 29.79 in 10.0 mi South 4.6 mph - N/A   Mostly Cloudy
5:52 PM 46.4 °F 44.3 °F 42.8 °F 87% 29.79 in 10.0 mi SSW 4.6 mph - N/A   Overcast
6:12 PM 48.2 °F - 42.8 °F 82% 29.80 in 10.0 mi SSW 4.6 mph - N/A   Overcast
6:33 PM 48.2 °F - 42.8 °F 82% 29.80 in 10.0 mi South 6.9 mph - N/A   Overcast
6:52 PM 46.4 °F 42.9 °F 42.8 °F 87% 29.79 in 10.0 mi South 6.9 mph - N/A   Overcast
7:12 PM 46.4 °F 44.3 °F 42.8 °F 87% 29.80 in 10.0 mi South 4.6 mph - N/A   Overcast
7:33 PM 46.4 °F 44.3 °F 42.8 °F 87% 29.80 in 10.0 mi SSE 4.6 mph - N/A   Overcast
7:52 PM 46.4 °F 44.3 °F 42.8 °F 87% 29.79 in 10.0 mi SSE 4.6 mph - N/A   Overcast
8:12 PM 46.4 °F 43.5 °F 42.8 °F 87% 29.80 in 10.0 mi SSE 5.8 mph - N/A   Overcast
8:33 PM 46.4 °F 44.3 °F 42.8 °F 87% 29.81 in 10.0 mi SSE 4.6 mph - N/A   Overcast
8:52 PM 46.4 °F 42.9 °F 42.8 °F 87% 29.81 in 10.0 mi SSE 6.9 mph - N/A   Overcast
9:12 PM 46.4 °F 43.5 °F 42.8 °F 87% 29.81 in 10.0 mi SSE 5.8 mph - N/A   Overcast
9:33 PM 46.4 °F 43.5 °F 42.8 °F 87% 29.81 in 10.0 mi SSE 5.8 mph - N/A   Overcast
9:52 PM 46.4 °F 43.5 °F 42.8 °F 87% 29.82 in 10.0 mi SSE 5.8 mph - N/A   Mostly Cloudy
10:12 PM 46.4 °F 45.2 °F 42.8 °F 87% 29.82 in 10.0 mi SSE 3.5 mph - N/A   Scattered Clouds
10:33 PM 44.6 °F 42.2 °F 42.8 °F 93% 29.82 in 10.0 mi SE 4.6 mph - N/A   Unknown
10:52 PM 44.6 °F 43.1 °F 42.8 °F 93% 29.82 in 10.0 mi SSE 3.5 mph - N/A   Unknown
11:33 PM 44.6 °F 43.1 °F 42.8 °F 93% 29.82 in 10.0 mi SSE 3.5 mph - N/A   Clear
11:52 PM 44.6 °F 43.1 °F 42.8 °F 93% 29.82 in 10.0 mi SE 3.5 mph - N/A   Clear